FW9290 Weather Reports


time (UTC)temp
C
wind
direction
speed
KPH
gust
KPH
rain 1hr
cm
rain 24hr
cm
rain mn
cm
humidity
%
barometer
mb
20260502181537 22 294 1.6 11.3 0.00 6.63 0.00 53 1020.5
20260502181019 22 59 1.6 11.3 0.00 6.63 0.00 52 1020.7
20260502180518 22 220 3.2 9.7 0.00 6.63 0.00 52 1020.6
20260502162020 20 39 3.2 17.7 0.00 8.94 0.00 60 1020.8
20260502161537 21 67 1.6 9.7 0.00 8.94 0.00 61 1020.8
20260502161019 20 3 1.6 9.7 0.00 8.94 0.00 61 1020.7
20260502160526 20 6 3.2 8.0 0.00 8.94 0.00 62 1020.8
20260502152018 18 123 1.6 11.3 0.00 8.97 0.00 70 1020.8
20260502151540 18 44 1.6 11.3 0.00 8.97 0.00 73 1020.6
20260502151019 18 43 1.6 9.7 0.00 8.97 0.00 71 1020.7
20260502150519 18 67 0.0 8.0 0.00 8.97 0.00 73 1020.6
20260502130518 13 37 1.6 6.4 0.00 9.25 0.00 90 1019.6
20260502123518 12 0 1.6 6.4 0.00 9.27 0.00 92 1019.3
20260502123036 12 56 0.0 3.2 0.00 9.27 0.00 92 1019.2
20260502122519 11 0 0.0 3.2 0.00 9.27 0.00 92 1019.1
20260502122019 11 338 0.0 1.6 0.00 9.27 0.00 93 1018.9
20260502121535 11 0 0.0 3.2 0.00 9.27 0.00 92 1019.0
20260502121020 11 6 0.0 3.2 0.00 9.27 0.00 92 1018.8
20260502120518 11 0 0.0 1.6 0.00 9.27 0.00 92 1018.8
20260502115522 11 0 0.0 3.2 0.00 9.27 0.00 92 1018.7
20260502115020 11 328 0.0 4.8 0.00 9.27 0.00 92 1018.6
20260502114539 11 0 0.0 4.8 0.00 9.27 0.00 92 1018.6
20260502114019 11 314 0.0 4.8 0.00 9.27 0.00 92 1018.6
20260502113521 11 84 0.0 3.2 0.00 9.27 0.00 92 1018.7
20260502113033 11 0 0.0 1.6 0.00 9.27 0.00 92 1018.7
20260502112518 11 0 0.0 3.2 0.00 9.27 0.00 92 1018.7
20260502112018 11 0 0.0 3.2 0.00 9.27 0.00 92 1018.5
20260502111535 11 0 0.0 3.2 0.00 9.27 0.00 91 1018.4
20260502111018 11 328 0.0 3.2 0.00 9.27 0.00 91 1018.4
20260502110518 12 0 0.0 3.2 0.00 9.27 0.00 91 1018.4
20260502110036 12 0 0.0 3.2 0.00 9.27 0.00 91 1018.3
20260502105519 12 41 0.0 3.2 0.00 9.35 0.00 91 1018.1
20260502105018 12 0 0.0 4.8 0.00 9.35 0.00 91 1018.0
20260502104537 12 0 0.0 4.8 0.00 9.35 0.00 91 1018.1
20260502104021 12 0 0.0 3.2 0.00 9.35 0.00 91 1018.0
20260502103519 12 0 0.0 3.2 0.00 9.35 0.00 91 1017.8
20260502103037 12 1 0.0 3.2 0.00 9.35 0.00 91 1017.7
20260502102519 12 318 0.0 3.2 0.00 9.35 0.00 90 1017.7
20260502102019 12 315 0.0 6.4 0.00 9.35 0.00 90 1017.7
20260502101535 12 13 1.6 6.4 0.00 9.35 0.00 90 1017.6
20260502101021 12 0 0.0 3.2 0.00 9.35 0.00 90 1017.5
20260502100518 12 0 0.0 1.6 0.00 9.35 0.00 89 1017.3
20260502091019 13 0 1.6 6.4 0.00 9.65 0.00 88 1016.6
20260502090518 13 43 0.0 6.4 0.00 9.65 0.00 88 1016.6
20260502071019 13 65 1.6 11.3 0.00 9.98 0.00 91 1016.2
20260502070522 13 58 0.0 4.8 0.00 9.98 0.00 91 1016.3
20260502070047 13 19 0.0 8.0 0.00 9.98 0.00 91 1016.4
20260502065519 13 342 1.6 9.7 0.00 10.01 0.00 91 1016.4
20260502065018 13 37 1.6 9.7 0.00 10.01 0.00 91 1016.4
20260502064544 13 76 1.6 11.3 0.00 10.01 0.00 91 1016.3
20260502064020 13 296 1.6 11.3 0.00 10.01 0.00 91 1016.3
20260502063518 13 0 0.0 8.0 0.00 10.01 0.00 91 1016.3
20260502063036 13 15 1.6 8.0 0.00 10.01 0.00 91 1016.0
20260502062518 13 332 1.6 9.7 0.00 10.01 0.00 91 1016.0
20260502062019 13 323 1.6 11.3 0.00 10.01 0.00 91 1016.0
20260502061537 13 84 1.6 11.3 0.00 10.01 0.00 91 1016.0
20260502061021 13 8 3.2 12.9 0.00 10.01 0.00 91 1016.0
20260502060519 13 17 4.8 12.9 0.00 10.01 0.00 91 1016.0
20260502060036 13 271 1.6 9.7 0.00 10.01 0.00 91 1015.9
20260502055519 13 262 3.2 12.9 0.00 10.46 0.00 91 1015.9
20260502055019 13 11 3.2 12.9 0.00 10.46 0.00 92 1015.9
20260502054535 13 52 1.6 12.9 0.00 10.46 0.00 92 1016.0
20260502054018 13 333 3.2 9.7 0.00 10.46 0.00 92 1016.0
20260502053519 13 65 3.2 9.7 0.00 10.46 0.00 92 1016.0
20260502053035 13 0 1.6 9.7 0.00 10.46 0.00 92 1016.0
20260502052518 13 327 1.6 9.7 0.00 10.46 0.00 92 1015.9
20260502052018 13 125 1.6 9.7 0.00 10.46 0.00 92 1016.0
20260502051537 13 31 3.2 9.7 0.00 10.46 0.00 93 1015.9
20260502051021 13 20 1.6 14.5 0.00 10.46 0.00 92 1016.0
20260502050520 13 13 1.6 14.5 0.00 10.46 0.00 93 1015.7
20260502050037 13 63 3.2 12.9 0.00 10.46 0.00 93 1015.7
20260502045519 13 27 3.2 12.9 0.00 10.46 10.46 93 1015.8
20260502045021 13 38 1.6 17.7 0.00 10.46 10.46 93 1015.9
20260502044537 13 271 1.6 17.7 0.00 10.46 10.46 93 1015.8
20260502044018 13 334 4.8 17.7 0.00 10.46 10.46 93 1015.9
20260502043518 13 65 3.2 11.3 0.00 10.46 10.46 93 1016.0
20260502043041 13 56 3.2 9.7 0.00 10.46 10.46 93 1016.0
20260502042518 13 297 4.8 9.7 0.00 10.46 10.46 94 1016.0
20260502042018 13 315 1.6 9.7 0.00 10.46 10.46 94 1015.9
20260502041542 13 243 1.6 9.7 0.00 10.46 10.46 94 1015.7
20260502041022 13 29 3.2 9.7 0.00 10.46 10.46 94 1015.7
20260502040518 13 30 0.0 11.3 0.00 10.46 10.46 94 1015.7
20260502040035 13 286 3.2 11.3 0.00 10.46 10.46 94 1015.8
20260502035519 13 303 1.6 11.3 0.00 10.46 10.46 94 1015.8
20260502035019 13 32 1.6 12.9 0.00 10.46 10.46 94 1015.8
20260502034538 13 302 3.2 12.9 0.00 10.46 10.46 94 1015.6
20260502034022 13 9 3.2 9.7 0.03 10.46 10.46 94 1015.4
20260502033520 13 338 1.6 11.3 0.03 10.46 10.46 94 1015.4
20260502033039 13 313 1.6 11.3 0.03 10.46 10.46 94 1015.2
20260502032518 13 34 1.6 11.3 0.03 10.46 10.46 94 1015.3
20260502032018 13 32 1.6 8.0 0.03 10.46 10.46 94 1015.4
20260502031535 13 353 3.2 12.9 0.08 10.46 10.46 94 1015.0
20260502031019 13 4 1.6 12.9 0.10 10.46 10.46 94 1014.7
20260502030517 13 278 3.2 12.9 0.18 10.46 10.46 94 1014.8
20260502030035 13 41 3.2 12.9 0.23 10.46 10.46 95 1014.1
20260502025519 13 0 1.6 11.3 0.23 10.46 10.46 95 1014.1
20260502025019 13 0 3.2 11.3 0.23 10.46 10.46 95 1014.2
20260502024539 13 0 1.6 11.3 0.20 10.44 10.44 95 1014.2
20260502024021 13 288 3.2 11.3 0.20 10.44 10.44 95 1014.2
20260502023521 13 359 1.6 11.3 0.20 10.44 10.44 95 1014.0
20260502023037 13 16 3.2 12.9 0.20 10.44 10.44 95 1014.0
20260502022518 13 51 3.2 12.9 0.23 10.44 10.44 94 1013.9
20260502022018 14 65 1.6 9.7 0.20 10.41 10.41 95 1013.9
20260502021535 14 0 3.2 11.3 0.20 10.39 10.39 95 1014.0
20260502021020 14 338 3.2 11.3 0.20 10.36 10.36 95 1014.0
20260502020519 14 15 0.0 4.8 0.13 10.26 10.26 95 1014.0
20260502020033 14 0 0.0 4.8 0.10 10.24 10.24 95 1013.9
20260502015519 14 0 0.0 4.8 0.13 10.24 10.24 95 1013.8
20260502015019 14 238 0.0 4.8 0.13 10.24 10.24 95 1013.8
20260502014549 14 41 0.0 6.4 0.13 10.24 10.24 95 1013.9
20260502014019 14 327 1.6 8.0 0.13 10.24 10.24 95 1013.8
20260502013519 14 27 0.0 8.0 0.13 10.24 10.24 95 1013.5
20260502013036 14 77 1.6 6.4 0.15 10.24 10.24 95 1013.5
20260502012519 15 325 1.6 9.7 0.13 10.21 10.21 95 1013.3
20260502012022 14 350 1.6 9.7 0.13 10.21 10.21 95 1013.0
20260502011544 15 316 3.2 14.5 0.13 10.19 10.19 95 1013.0
20260502011020 15 16 0.0 14.5 0.13 10.16 10.16 95 1012.9
20260502010522 15 287 1.6 9.7 0.18 10.13 10.13 95 1012.9
20260502010040 15 314 3.2 9.7 0.23 10.13 10.13 95 1013.0
20260502005519 15 323 1.6 6.4 0.28 10.11 10.11 95 1013.2
20260502005019 15 328 1.6 8.0 0.46 10.11 10.11 95 1013.1
20260502004533 15 0 1.6 9.7 0.51 10.11 10.11 95 1012.6
20260502004019 15 72 1.6 9.7 0.53 10.11 10.11 95 1012.0
20260502003518 15 312 1.6 8.0 0.53 10.11 10.11 95 1011.8
20260502003033 15 335 1.6 8.0 0.51 10.08 10.08 95 1011.7
20260502002518 15 283 1.6 6.4 0.51 10.08 10.08 95 1011.7
20260502002019 15 318 0.0 6.4 0.53 10.08 10.08 95 1011.8
20260502001536 15 46 1.6 6.4 0.56 10.06 10.06 95 1012.0
20260502001019 15 39 0.0 8.0 0.53 10.01 10.01 95 1011.9
20260502000518 15 46 1.6 9.7 0.51 9.96 9.96 95 1012.0
20260502000051 15 0 1.6 12.9 0.48 9.91 9.91 95 1012.0
20260501235521 15 324 3.2 12.9 0.43 9.83 9.83 95 1012.0
20260501235019 15 277 1.6 9.7 0.23 9.63 9.63 94 1012.2
20260501234537 15 31 3.2 14.5 0.20 9.60 9.60 94 1011.9
20260501234019 15 331 3.2 14.5 0.18 9.58 9.58 94 1011.5
20260501233519 15 73 3.2 12.9 0.18 9.58 9.58 94 1010.7
20260501233034 15 28 3.2 11.3 0.18 9.58 9.58 94 1010.6
20260501232521 15 330 3.2 11.3 0.18 9.58 9.58 94 1010.8
20260501232025 15 9 1.6 9.7 0.18 9.55 9.55 94 1010.6
20260501231535 15 58 1.6 9.7 0.13 9.50 9.50 94 1011.3
20260501231018 15 36 3.2 9.7 0.10 9.47 9.47 94 1011.5
20260501230523 15 319 3.2 9.7 0.05 9.42 9.42 94 1011.4
20260501230043 16 95 1.6 9.7 0.05 9.40 9.40 94 1011.1
20260501225521 16 336 1.6 9.7 0.08 9.40 9.40 94 1010.9
20260501225021 16 0 1.6 9.7 0.18 9.40 9.40 95 1010.8
20260501224540 16 0 0.0 12.9 0.36 9.40 9.40 95 1010.7
20260501224021 16 357 1.6 12.9 0.58 9.40 9.40 95 1010.7
20260501223521 16 53 1.6 9.7 0.71 9.40 9.40 95 1010.6
20260501223039 16 24 3.2 9.7 0.86 9.40 9.40 95 1010.6
20260501222519 16 49 4.8 9.7 1.14 9.40 9.40 95 1010.4
20260501222019 16 16 1.6 9.7 1.17 9.37 9.37 95 1010.3
20260501221535 16 355 3.2 11.3 1.22 9.37 9.37 95 1010.7
20260501221018 16 17 3.2 11.3 1.30 9.37 9.37 95 1010.6
20260501220519 16 329 3.2 11.3 1.30 9.37 9.37 95 1010.8
20260501220036 16 11 1.6 11.3 1.30 9.35 9.35 95 1010.7
20260501215519 16 18 1.6 4.8 1.27 9.32 9.32 95 1010.7
20260501215022 16 302 1.6 4.8 1.17 9.19 9.19 95 1011.0
20260501214540 16 72 1.6 6.4 1.04 9.02 9.02 95 1011.4
20260501214018 16 335 1.6 6.4 0.86 8.79 8.79 95 1011.4
20260501213521 16 25 0.0 6.4 0.84 8.69 8.69 95 1010.9
20260501213035 16 316 0.0 3.2 0.74 8.48 8.48 95 1010.9
20260501212518 16 345 0.0 8.0 0.61 8.23 8.23 95 1011.3
20260501212019 16 45 0.0 8.0 0.64 8.20 8.20 95 1011.1
20260501211538 16 49 1.6 8.0 0.69 8.15 8.15 95 1010.8
20260501211021 16 347 1.6 6.4 0.86 8.08 8.08 95 1010.8
20260501210519 16 0 0.0 9.7 0.86 8.08 8.08 95 1010.9
20260501210033 16 39 1.6 11.3 0.86 8.05 8.05 95 1010.1
20260501205519 16 31 3.2 11.3 0.86 8.05 8.05 95 1009.5
20260501205020 16 25 3.2 11.3 0.86 8.03 8.03 95 1009.4
20260501204536 16 29 1.6 9.7 0.84 7.98 7.98 95 1009.3
20260501204018 16 344 1.6 9.7 0.84 7.92 7.92 95 1009.5
20260501203518 16 351 1.6 6.4 0.81 7.85 7.85 95 1009.4
20260501203036 16 307 1.6 6.4 0.91 7.72 7.72 95 1010.2
20260501202518 16 0 0.0 8.0 0.84 7.59 7.59 95 1010.5
20260501202018 16 8 0.0 8.0 0.81 7.54 7.54 95 1010.3
20260501201552 16 70 1.6 8.0 0.71 7.44 7.44 95 1010.1
20260501201020 16 49 0.0 11.3 0.48 7.21 7.21 95 1010.3
20260501200521 16 46 1.6 11.3 0.51 7.21 7.21 95 1009.9
20260501200037 16 356 3.2 8.0 0.48 7.19 7.19 95 1009.2
20260501195520 16 82 1.6 14.5 0.48 7.19 7.19 95 1009.3
20260501195022 17 322 1.6 14.5 0.48 7.16 7.16 95 1009.4
20260501194540 16 43 1.6 14.5 0.51 7.14 7.14 95 1009.2
20260501194019 16 0 1.6 6.4 0.69 7.09 7.09 95 1009.2
20260501193518 16 51 1.6 6.4 1.57 6.99 6.99 95 1009.2
20260501193036 16 52 0.0 14.5 1.85 6.78 6.78 95 1009.3
20260501192520 16 33 0.0 14.5 1.88 6.76 6.76 95 1009.4
20260501192018 16 64 0.0 4.8 1.85 6.73 6.73 95 1009.2
20260501191539 16 0 0.0 8.0 1.91 6.73 6.73 96 1009.8
20260501191025 16 331 1.6 8.0 1.96 6.71 6.71 95 1009.8
20260501190522 16 0 0.0 8.0 2.26 6.71 6.71 96 1009.6
20260501190039 16 28 3.2 14.5 2.79 6.71 6.71 96 1009.3
20260501185518 16 195 3.2 14.5 2.97 6.71 6.71 96 1008.6
20260501185021 16 274 1.6 6.4 3.02 6.68 6.68 96 1008.6
20260501184533 17 75 1.6 8.0 2.97 6.63 6.63 96 1009.4
20260501184019 17 0 0.0 8.0 2.77 6.35 6.35 95 1010.3
20260501183522 17 105 0.0 6.4 1.75 5.28 5.28 96 1009.4
20260501183045 17 262 1.6 6.4 1.40 4.90 4.90 96 1011.9
20260501182519 16 256 1.6 6.4 1.37 4.88 4.88 96 1010.6
20260501182021 16 345 0.0 8.0 1.40 4.88 4.88 95 1008.7